Regional Weather Roundup
Issued by NWS

Home | Current Version | Previous Version | Graphics & Text | Print | Product List | Glossary Off
Versions: 1 2 3 4 5 6 7 8 9 10 11 12 13 14 15 16 17 18 19 20 21 22 23 24 25 26 27 28 29 30 31 32 33 34 35 36 37 38 39 40 41 42 43 44 45 46 47 48 49 50

000
ASUS43 KTOP 271608
RWRKS

WEATHER ROUNDUP FOR KANSAS
NATIONAL WEATHER SERVICE GOODLAND KS
1100 AM CDT MON JUL 27 2015

NOTE:  "FAIR" INDICATES FEW OR NO CLOUDS BELOW 12,000 FEET WITH NO
SIGNIFICANT WEATHER AND/OR OBSTRUCTIONS TO VISIBILITY.

KSZ001>006-013>018-027>032-041>047-271700-
NORTHWEST KANSAS

CITY           SKY/WX    TMP DP  RH WIND       PRES   REMARKS
GOODLAND       MOSUNNY   76  66  71 S21G28    29.92R
HAYS           PTSUNNY   84  66  54 S16G24    29.89F
HILL CITY      PTSUNNY   85  68  56 S18       29.90F
RUSSELL        PTSUNNY   81  70  69 S12       29.88F
$$

KSZ061>065-074>080-084>089-271700-
SOUTHWEST KANSAS

CITY           SKY/WX    TMP DP  RH WIND       PRES   REMARKS
DODGE CITY     MOSUNNY   82  65  56 S23G29    29.94F
ELKHART          N/A     83  64  52 S21         N/A
GARDEN CITY    MOSUNNY   81  67  62 S18G28    29.92F
GREAT BEND     PTSUNNY   86  66  51 S21G29    29.90F
LIBERAL        SUNNY     84  66  54 SE14G21   29.95F
PRATT          PTSUNNY   84  63  48 S15       29.95F
$$

KSZ066>073-081>083-090>101-271700-
SOUTHEAST KANSAS

CITY           SKY/WX    TMP DP  RH WIND       PRES   REMARKS
CHANUTE        MOSUNNY   87  75  67 S13       29.94F HX  96
COFFEYVILLE    MOSUNNY   90  74  59 SW9       29.94S HX  99
HUTCHINSON     PTSUNNY   92  64  39 S15G25    29.91F
MEDICINE LODGE   N/A     87  72  60 S9        29.93F
NEWTON         MOSUNNY   90  68  48 S15G21    29.95S
PARSONS        MOSUNNY   89  74  60 SW8       29.96S HX  98
WICHITA INTL   PTSUNNY   87  73  62 S13       29.92S
WICHITA JABRA  MOSUNNY   90  72  55 S15       29.92S HX  97
WICHITA MCCONL MOSUNNY   86  73  64 SE14      29.93S
WINFIELD       MOSUNNY   88  73  61 S10       29.95F HX  95
$$

KSZ007>012-019>026-033>040-048>060-102>105-271700-
NORTHEAST KANSAS

CITY           SKY/WX    TMP DP  RH WIND       PRES   REMARKS
CONCORDIA      CLOUDY    80  69  69 SE14      29.92S
EMPORIA        PTSUNNY   87  72  60 SE15      29.91F
LAWRENCE       PTSUNNY   86  74  67 S8        29.91F
MANHATTAN      CLOUDY    79  71  76 W6        29.91S
MARYSVILLE     LGT RAIN  79  72  78 SE6       29.93F
OLATHE IND     PTSUNNY   88  75  65 S12       29.94S HX  97
OLATHE EXE     PTSUNNY   85  75  72 S10       29.93S
SALINA         PTSUNNY   84  72  67 S7        29.91F
TOPEKA BILLARD CLOUDY    83  75  77 SE3       29.91S
TOPEKA FORBES  CLOUDY    84  74  71 S6        29.92R
$$



USA.gov is the U.S. government's official web portal to all federal, state and local government web resources and services.